Location: Wells
(51.2093°N, 2.6446°W)
Time: 06:45:31
(UTC+01:00)

ITUPSAT 1 - Pass Details

Date: 17 March 2026
Orbit: 686 x 698 km, 98.4° (Epoch: 15 April)

Event Time Altitude Azimuth Distance (km) Brightness Sun altitude
Rises 23:50:42 0° 15° (NNE) 3,075 ? -39.5°
Reaches altitude 10° 23:52:58 10° 16° (NNE) 2,152 ? -39.5°
Enters shadow 23:53:30 13° 16° (NNE) 1,932 ? -39.5°
